This demonstration page uses our WeatherBlox Daily Observations layout. Learn more.

Left ArrowRight Arrow

34.74481, -87.66753

Hourly Observations for January 20, 2022

Temp ( °F °C ) Dew Point ( °F °C ) Humidity (%) Winds ( mph kmh ) Pressure ( in mb ) Visibility ( mi km ) Precip ( " mm )
12:27 am 00:27 Cloudy with Light Rain 40 4.4 37 2.8 89 89 NNW 12 19 30.15 1021 4 6 0.00 0.00
12:53 am 00:53 Cloudy with Light Rain 38 3.3 34 1.1 86 86 NNE 16 26 30.14 1021 7 11 0.01 0.25
1:53 am 01:53 Cloudy with Mist and Fog 37 2.8 34 1.1 89 89 N 9 15 30.16 1021 5 8 0.00 0.00
2:53 am 02:53 Cloudy 36 2.2 32 0 86 86 N 13 20 30.16 1021 10 16 0.00 0.00
3:20 am 03:20 Cloudy 35 1.7 32 0 89 89 N 9 15 30.22 1023 10 16 0.00 0.00
3:51 am 03:51 Cloudy 36 2 30 -1 81 81 N 9 15 30.23 1024 10 16 0.00 0.00
3:53 am 03:53 Cloudy 35 1.7 31 -0.6 85 85 N 8 13 30.19 1022 10 16 0.00 0.00
4:53 am 04:53 Cloudy 34 1.1 29 -1.7 82 82 NNE 15 24 30.21 1023 10 16 0.00 0.00
5:53 am 05:53 Cloudy 32 0 26 -3.3 79 79 N 10 17 30.25 1024 10 16 0.00 0.00
6:01 am 06:01 Cloudy 32 0 26 -3.3 79 79 N 12 19 30.29 1026 10 16 0.00 0.00
6:53 am 06:53 Cloudy 31 -0.6 24 -4.4 76 76 N 13 20 30.30 1026 10 16 0.00 0.00
7:53 am 07:53 Cloudy 31 -0.6 23 -5 72 72 NNE 13 20 30.31 1026 10 16 0.00 0.00
8:53 am 08:53 Cloudy 30 -1.1 22 -5.6 72 72 NNE 14 22 30.34 1027 10 16 0.00 0.00
9:53 am 09:53 Cloudy 29 -1.7 21 -6.1 72 72 N 10 17 30.35 1028 10 16 0.00 0.00
10:53 am 10:53 Cloudy 28 -2.2 20 -6.7 72 72 N 16 26 30.36 1028 10 16 0.00 0.00
11:53 am 11:53 Cloudy 29 -1.7 21 -6.1 72 72 NNE 15 24 30.35 1028 10 16 0.00 0.00
12:53 pm 12:53 Cloudy 31 -0.6 21 -6.1 67 67 NNE 12 19 30.33 1027 10 16 0.00 0.00
1:53 pm 13:53 Mostly Cloudy 31 -0.6 21 -6.1 67 67 NNE 14 22 30.33 1027 10 16 0.00 0.00
2:53 pm 14:53 Partly Cloudy 32 0 21 -6.1 64 64 NNE 14 22 30.33 1027 10 16 0.00 0.00
3:06 pm 15:06 Mostly Cloudy 31 -0.6 20 -6.7 64 64 NNE 13 20 30.36 1028 10 16 0.00 0.00
3:43 pm 15:43 Partly Cloudy 31 -0.6 20 -6.7 64 64 NNE 10 17 30.37 1028 10 16 0.00 0.00
3:53 pm 15:53 Mostly Sunny 30 -1.1 19 -7.2 64 64 NNE 15 24 30.35 1028 10 16 0.00 0.00
4:33 pm 16:33 Mostly Cloudy 30 -1.1 20 -6.7 66 66 NNE 9 15 30.39 1029 10 16 0.00 0.00
4:53 pm 16:53 Mostly Cloudy 29 -1.7 19 -7.2 66 66 NNE 12 19 30.37 1028 10 16 0.00 0.00
5:53 pm 17:53 Partly Cloudy 27 -2.8 18 -7.8 69 69 NNE 13 20 30.40 1029 10 16 0.00 0.00
6:09 pm 18:09 Mostly Cloudy 27 -2.8 17 -8.3 66 66 NNE 16 26 30.43 1030 10 16 0.00 0.00
6:53 pm 18:53 Cloudy 26 -3.3 16 -8.9 66 66 NNE 15 24 30.42 1030 10 16 0.00 0.00
7:53 pm 19:53 Cloudy 26 -3.3 16 -8.9 66 66 NNE 17 28 30.42 1030 10 16 0.00 0.00
8:53 pm 20:53 Cloudy 26 -3.3 16 -8.9 66 66 NNE 12 19 30.42 1030 10 16 0.00 0.00
9:53 pm 21:53 Cloudy 27 -2.8 17 -8.3 66 66 N 10 17 30.42 1030 10 16 0.00 0.00
10:53 pm 22:53 Cloudy 27 -2.8 17 -8.3 66 66 NNE 10 17 30.41 1030 10 16 0.00 0.00
11:53 pm 23:53 Cloudy 27 -2.8 17 -8.3 66 66 NNE 9 15 30.40 1030 10 16 0.00 0.00

Powered by AerisWeather